ANA215 RJTT-LFPG

Flight info

Callsign ANA215
Flight time N/A
Altitude 29000
Route INUBO Y808 NOLAX Y814 AVBET OTR11 LEPKI/N0504F310 41N160E 45N170E DCT CHIPT DCT OBOYD/N0490F330 DCT MARCC DCT JUJXI DCT AGMIF/N0493F350 DCT 79N120W 80N100W 80N080W DCT BUDUM/M084F350 DCT 80N060W 78N040W 72N020W 65N010W/M084F370 DCT NALAN/N0490F370 DCT ELBUS DCT AKOMU DCT VAMEB UL612 COWLY Q70 BENSU/N0472F250 UM605 BIBAX
Aircraft B77W/H-SDE1E2E3FGHIJ2J3J4J5M1RWXY/LB1D1

Departure

Time 2026-05-08 04:52
Airport Tokyo Haneda International Airport (RJTT)

Arrival

Time N/A
Airport Charles de Gaulle International Airport (LFPG)
Time Latitude Longitude Altitude Speed Heading
2026-05-08 04:21 35.55061 139.79045 56 ft 0 kts 237°
2026-05-08 04:40 35.55062 139.79048 28 ft 1 kts 239°
2026-05-08 04:40 35.55064 139.79051 28 ft 1 kts 239°
2026-05-08 04:40 35.55068 139.79060 28 ft 0 kts 239°
2026-05-08 04:41 35.55073 139.79070 29 ft 2 kts 239°
2026-05-08 04:41 35.55084 139.79093 27 ft 3 kts 247°
2026-05-08 04:41 35.55089 139.79114 26 ft 3 kts 264°
2026-05-08 04:41 35.55090 139.79123 27 ft 0 kts 291°
2026-05-08 04:42 35.55083 139.79133 24 ft 2 kts 340°
2026-05-08 04:42 35.55067 139.79138 26 ft 2 kts 350°
2026-05-08 04:42 35.55053 139.79142 28 ft 1 kts 336°
2026-05-08 04:42 35.55050 139.79143 27 ft 0 kts 331°
2026-05-08 04:45 35.55068 139.79130 27 ft 4 kts 328°
2026-05-08 04:46 35.55090 139.79113 26 ft 4 kts 328°
2026-05-08 04:46 35.55112 139.79096 28 ft 4 kts 329°
2026-05-08 04:46 35.55159 139.79063 28 ft 12 kts 330°
2026-05-08 04:46 35.55233 139.79011 28 ft 12 kts 330°
2026-05-08 04:47 35.55306 139.78960 28 ft 12 kts 330°
2026-05-08 04:47 35.55383 139.78936 28 ft 12 kts 20°
2026-05-08 04:47 35.55438 139.79011 28 ft 12 kts 60°
2026-05-08 04:47 35.55479 139.79101 28 ft 12 kts 60°
2026-05-08 04:48 35.55550 139.79133 28 ft 12 kts 343°
2026-05-08 04:48 35.55625 139.79083 28 ft 12 kts 329°
2026-05-08 04:48 35.55673 139.79048 28 ft 12 kts 329°
2026-05-08 04:49 35.55909 139.78880 28 ft 18 kts 329°
2026-05-08 04:49 35.56002 139.78814 28 ft 2 kts 330°
2026-05-08 04:49 35.56017 139.78803 28 ft 2 kts 330°
2026-05-08 04:49 35.56032 139.78793 28 ft 2 kts 330°
2026-05-08 04:50 35.56049 139.78781 28 ft 3 kts 330°
2026-05-08 04:50 35.56092 139.78751 28 ft 13 kts 330°
2026-05-08 04:50 35.56180 139.78690 28 ft 15 kts 330°
2026-05-08 04:50 35.56289 139.78613 28 ft 19 kts 329°
2026-05-08 04:51 35.56401 139.78532 28 ft 16 kts 329°
2026-05-08 04:51 35.56495 139.78508 28 ft 15 kts 35°
2026-05-08 04:51 35.56553 139.78611 28 ft 15 kts 69°
2026-05-08 04:51 35.56513 139.78715 28 ft 15 kts 147°
2026-05-08 04:52 35.56382 139.78806 28 ft 43 kts 150°
2026-05-08 04:52 35.55876 139.79163 28 ft 124 kts 150°
2026-05-08 04:52 35.54902 139.79852 43 ft 194 kts 152°
2026-05-08 04:52 35.53687 139.80718 811 ft 203 kts 150°
2026-05-08 04:53 35.52590 139.81850 1483 ft 222 kts 139°
2026-05-08 04:53 35.51528 139.83203 2100 ft 222 kts 139°
2026-05-08 04:53 35.50431 139.84620 2380 ft 236 kts 139°
2026-05-08 04:53 35.49251 139.86146 2590 ft 256 kts 140°
2026-05-08 04:54 35.47978 139.87775 2885 ft 270 kts 139°
2026-05-08 04:54 35.46670 139.89450 3463 ft 274 kts 138°
2026-05-08 04:54 35.45622 139.91451 3885 ft 291 kts 110°
2026-05-08 04:54 35.45532 139.93969 4391 ft 306 kts 76°
2026-05-08 04:55 35.46531 139.96268 4953 ft 309 kts 46°
2026-05-08 04:55 35.48076 139.98110 5452 ft 311 kts 33°
2026-05-08 04:55 35.50035 139.99153 5877 ft 307 kts
2026-05-08 04:55 35.52141 139.99032 6401 ft 300 kts 341°
2026-05-08 04:56 35.54158 139.98379 6972 ft 300 kts 338°
2026-05-08 04:56 35.56166 139.97675 7594 ft 301 kts 338°
2026-05-08 04:56 35.58170 139.96974 8163 ft 305 kts 337°
2026-05-08 04:56 35.60215 139.96266 8811 ft 305 kts 338°
2026-05-08 04:57 35.62343 139.95909 9240 ft 318 kts 354°
2026-05-08 04:57 35.64587 139.96078 9737 ft 325 kts 359°
2026-05-08 04:57 35.66852 139.96331 10245 ft 329 kts 358°
2026-05-08 04:57 35.69191 139.96536 10412 ft 346 kts 357°
2026-05-08 04:58 35.70808 139.96653 10530 ft 357 kts 357°
2026-05-08 04:58 35.73335 139.96758 10663 ft 367 kts 350°
2026-05-08 04:58 35.75821 139.96099 10793 ft 369 kts 335°
2026-05-08 04:58 35.78404 139.95424 10987 ft 397 kts 353°
2026-05-08 04:59 35.81201 139.96020 11459 ft 420 kts 17°
2026-05-08 04:59 35.83845 139.97640 12019 ft 424 kts 25°
2026-05-08 04:59 35.86542 139.99167 12406 ft 430 kts 17°
2026-05-08 04:59 35.89367 140.00396 12996 ft 431 kts 14°
2026-05-08 05:00 35.92234 140.01518 13626 ft 433 kts 13°
2026-05-08 05:00 35.95129 140.02645 14129 ft 438 kts 13°
2026-05-08 05:00 35.98049 140.03803 14711 ft 443 kts 14°
2026-05-08 05:00 36.01002 140.05006 15225 ft 451 kts 14°
2026-05-08 05:01 36.03990 140.06248 15770 ft 455 kts 14°
2026-05-08 05:01 36.07002 140.07511 16304 ft 459 kts 14°
2026-05-08 05:01 36.10026 140.08831 16757 ft 462 kts 19°
2026-05-08 05:01 36.12790 140.10970 16971 ft 479 kts 42°
2026-05-08 05:02 36.14834 140.14239 17403 ft 483 kts 65°
2026-05-08 05:02 36.15923 140.18143 17902 ft 479 kts 84°
2026-05-08 05:02 36.16167 140.22223 18322 ft 474 kts 99°
2026-05-08 05:02 36.15590 140.26190 18796 ft 464 kts 116°
2026-05-08 05:03 36.14314 140.29772 19286 ft 454 kts 130°
2026-05-08 05:03 36.12364 140.32724 19768 ft 436 kts 146°
2026-05-08 05:03 36.10122 140.35296 20166 ft 443 kts 146°
2026-05-08 05:03 36.07854 140.37916 20639 ft 448 kts 145°
2026-05-08 05:04 36.05619 140.40538 21147 ft 451 kts 144°
2026-05-08 05:04 36.03344 140.43233 21650 ft 455 kts 144°
2026-05-08 05:04 36.01057 140.45961 22105 ft 459 kts 144°
2026-05-08 05:04 35.98744 140.48725 22544 ft 464 kts 144°
2026-05-08 05:05 35.96417 140.51510 23016 ft 468 kts 144°
2026-05-08 05:05 35.94069 140.54322 23381 ft 471 kts 144°
2026-05-08 05:05 35.91708 140.57147 23686 ft 474 kts 144°
2026-05-08 05:05 35.89337 140.59980 24011 ft 475 kts 144°
2026-05-08 05:06 35.86956 140.62822 24353 ft 477 kts 144°
2026-05-08 05:06 35.84563 140.65676 24684 ft 479 kts 144°
2026-05-08 05:06 35.82163 140.68537 24976 ft 481 kts 144°
2026-05-08 05:06 35.79746 140.71419 25269 ft 484 kts 144°
2026-05-08 05:07 35.77348 140.74270 25562 ft 487 kts 144°
2026-05-08 05:07 35.74973 140.77269 25870 ft 495 kts 137°
2026-05-08 05:07 35.72907 140.80711 26173 ft 506 kts 129°
2026-05-08 05:07 35.71175 140.84535 26468 ft 516 kts 121°
2026-05-08 05:08 35.69835 140.88675 26735 ft 523 kts 115°
2026-05-08 05:08 35.68630 140.92918 27031 ft 526 kts 115°
2026-05-08 05:08 35.67436 140.97183 27312 ft 528 kts 115°
2026-05-08 05:08 35.66225 141.01464 27582 ft 530 kts 115°
2026-05-08 05:09 35.64995 141.05740 27853 ft 532 kts 115°
2026-05-08 05:09 35.63742 141.10028 28107 ft 533 kts 116°
2026-05-08 05:09 35.62473 141.14322 28368 ft 535 kts 116°
2026-05-08 05:09 35.61194 141.18623 28601 ft 537 kts 116°
2026-05-08 05:10 35.59907 141.22945 28825 ft 538 kts 116°
2026-05-08 05:10 35.57322 141.31612 29280 ft 542 kts 116°
2026-05-08 05:10 35.56043 141.35901 29523 ft 542 kts 116°
2026-05-08 05:11 35.54745 141.40250 29762 ft 543 kts 116°
2026-05-08 05:11 35.52144 141.48942 29771 ft 539 kts 116°
2026-05-08 05:12 35.49553 141.57571 29779 ft 539 kts 116°
2026-05-08 05:12 35.46955 141.66190 29786 ft 538 kts 116°
2026-05-08 05:13 35.44846 141.75068 29762 ft 547 kts 105°
2026-05-08 05:13 35.44001 141.84401 29779 ft 554 kts 94°
2026-05-08 05:14 35.44002 141.93795 29787 ft 553 kts 93°
2026-05-08 05:14 35.44006 142.03080 29774 ft 538 kts 94°
2026-05-08 05:15 35.43950 142.12242 29785 ft 536 kts 94°
2026-05-08 05:15 35.43860 142.21395 29795 ft 536 kts 94°
2026-05-08 05:16 35.43766 142.30535 29788 ft 535 kts 94°
2026-05-08 05:16 35.43671 142.39589 29798 ft 534 kts 94°
2026-05-08 05:17 35.43569 142.48690 29798 ft 534 kts 94°
2026-05-08 05:17 35.43462 142.57804 29799 ft 534 kts 94°
2026-05-08 05:18 35.43349 142.66912 29808 ft 534 kts 94°
2026-05-08 05:18 35.43228 142.76033 29809 ft 536 kts 94°
2026-05-08 05:19 35.43099 142.85170 29802 ft 536 kts 94°
2026-05-08 05:19 35.42962 142.94317 29816 ft 536 kts 94°
2026-05-08 05:20 35.42819 143.03464 29824 ft 536 kts 95°
2026-05-08 05:20 35.42670 143.12535 29821 ft 535 kts 95°
2026-05-08 05:21 35.42513 143.21648 29818 ft 534 kts 95°
2026-05-08 05:21 35.42688 143.30755 29822 ft 537 kts 84°
2026-05-08 05:22 35.44407 143.39675 29840 ft 539 kts 71°
2026-05-08 05:22 35.47333 143.48150 29844 ft 540 kts 66°
2026-05-08 05:23 35.50364 143.56594 29841 ft 540 kts 66°
2026-05-08 05:23 35.53342 143.65077 29836 ft 541 kts 67°
2026-05-08 05:24 35.56276 143.73583 29834 ft 541 kts 67°
2026-05-08 05:24 35.59204 143.82117 29836 ft 542 kts 68°
2026-05-08 05:25 35.62117 143.90623 29844 ft 543 kts 68°
2026-05-08 05:25 35.65049 143.99198 29845 ft 544 kts 68°
2026-05-08 05:26 35.67983 144.07802 29840 ft 545 kts 68°
2026-05-08 05:26 35.70922 144.16417 29837 ft 545 kts 67°
2026-05-08 05:27 35.73826 144.24984 29842 ft 545 kts 68°
2026-05-08 05:27 35.76727 144.33592 29851 ft 544 kts 68°
2026-05-08 05:28 35.79624 144.42188 29841 ft 543 kts 68°
2026-05-08 05:28 35.82510 144.50764 29844 ft 541 kts 67°
2026-05-08 05:29 35.85384 144.59331 29842 ft 540 kts 67°
2026-05-08 05:29 35.88231 144.67846 29852 ft 540 kts 67°
2026-05-08 05:30 35.91091 144.76428 29854 ft 540 kts 67°
2026-05-08 05:30 35.93947 144.85021 29853 ft 541 kts 68°
2026-05-08 05:31 35.96802 144.93634 29861 ft 543 kts 68°
2026-05-08 05:31 35.99659 145.02280 29861 ft 544 kts 68°
2026-05-08 05:32 36.02491 145.10875 29854 ft 543 kts 68°
2026-05-08 05:32 36.05331 145.19518 29852 ft 543 kts 68°
2026-05-08 05:33 36.08159 145.28153 29863 ft 541 kts 68°
2026-05-08 05:33 36.10969 145.36764 29858 ft 538 kts 68°
2026-05-08 05:34 36.13755 145.45342 29848 ft 536 kts 69°
2026-05-08 05:34 36.15885 145.54149 29879 ft 532 kts 77°
2026-05-08 05:35 36.17673 145.62969 29854 ft 531 kts 77°
2026-05-08 05:35 36.19476 145.71840 29862 ft 531 kts 77°
2026-05-08 05:36 36.21305 145.80706 29885 ft 532 kts 76°
2026-05-08 05:36 36.23148 145.89601 29868 ft 533 kts 76°
2026-05-08 05:37 36.24985 145.98501 29868 ft 533 kts 76°
2026-05-08 05:37 36.26816 146.07422 29886 ft 533 kts 77°
2026-05-08 05:38 36.28627 146.16285 29866 ft 533 kts 77°
2026-05-08 05:38 36.30440 146.25197 29871 ft 532 kts 77°
2026-05-08 05:39 36.32244 146.34099 29879 ft 531 kts 77°
2026-05-08 05:39 36.34037 146.42988 29869 ft 531 kts 77°
2026-05-08 05:40 36.35810 146.51810 29878 ft 530 kts 77°
2026-05-08 05:40 36.37586 146.60683 29880 ft 529 kts 77°
2026-05-08 05:41 36.39342 146.69555 29885 ft 529 kts 77°
2026-05-08 05:41 36.41101 146.78439 29885 ft 530 kts 77°
2026-05-08 05:42 36.42861 146.87327 29903 ft 530 kts 78°
2026-05-08 05:42 36.44612 146.96216 29879 ft 530 kts 78°
2026-05-08 05:43 36.46356 147.05110 29886 ft 529 kts 78°
2026-05-08 05:43 36.48089 147.13989 29879 ft 528 kts 78°
2026-05-08 05:44 36.49802 147.22803 29872 ft 527 kts 78°
2026-05-08 05:44 36.51516 147.31660 29896 ft 527 kts 78°
2026-05-08 05:45 36.53222 147.40514 29889 ft 526 kts 78°
2026-05-08 05:45 36.54636 147.47882 29900 ft 526 kts 78°
2026-05-08 05:46 36.56328 147.56736 29891 ft 526 kts 78°
2026-05-08 05:46 36.58015 147.65596 29901 ft 526 kts 78°
2026-05-08 05:47 36.59696 147.74467 29900 ft 527 kts 78°
2026-05-08 05:47 36.61372 147.83349 29901 ft 527 kts 78°
2026-05-08 05:48 36.63034 147.92192 29899 ft 528 kts 78°
2026-05-08 05:48 36.64699 148.01098 29910 ft 527 kts 78°
2026-05-08 05:49 36.66355 148.09984 29899 ft 526 kts 78°
2026-05-08 05:49 36.67993 148.18819 29910 ft 526 kts 79°
2026-05-08 05:50 36.69629 148.27680 29914 ft 524 kts 79°
2026-05-08 05:50 36.71255 148.36526 29907 ft 523 kts 79°
2026-05-08 05:51 36.72871 148.45361 29907 ft 521 kts 79°
2026-05-08 05:51 36.74475 148.54167 29924 ft 520 kts 79°
2026-05-08 05:52 36.76069 148.62960 29914 ft 519 kts 79°
2026-05-08 05:52 36.77646 148.71692 29922 ft 519 kts 79°
2026-05-08 05:53 36.79224 148.80474 29930 ft 518 kts 78°
2026-05-08 05:53 36.80794 148.89250 29922 ft 518 kts 79°
2026-05-08 05:54 36.82356 148.98021 29927 ft 517 kts 79°
2026-05-08 05:54 36.83901 149.06733 29925 ft 517 kts 78°
2026-05-08 05:55 36.85449 149.15502 29927 ft 517 kts 78°
2026-05-08 05:55 36.86989 149.24270 29929 ft 517 kts 79°
2026-05-08 05:56 36.88528 149.33071 29929 ft 517 kts 79°
2026-05-08 05:56 36.90050 149.41811 29929 ft 517 kts 79°
2026-05-08 05:57 36.91571 149.50592 29932 ft 518 kts 79°
2026-05-08 05:57 36.93087 149.59382 29934 ft 518 kts 79°
2026-05-08 05:58 36.94599 149.68191 29943 ft 517 kts 78°
2026-05-08 05:58 36.96100 149.76974 29934 ft 516 kts 78°
2026-05-08 05:59 36.97592 149.85746 29936 ft 515 kts 78°
2026-05-08 05:59 36.99092 149.94492 29935 ft 514 kts 76°
2026-05-08 06:00 37.01458 150.02928 29951 ft 515 kts 65°
2026-05-08 06:00 37.04876 150.10732 29942 ft 515 kts 58°
2026-05-08 06:01 37.08543 150.18457 29954 ft 515 kts 58°
2026-05-08 06:01 37.12189 150.26214 29951 ft 516 kts 58°
2026-05-08 06:02 37.15812 150.34015 29938 ft 518 kts 59°
2026-05-08 06:02 37.19394 150.41781 29943 ft 517 kts 59°
2026-05-08 06:03 37.22984 150.49583 29944 ft 515 kts 59°
2026-05-08 06:03 37.26559 150.57362 29941 ft 514 kts 59°
2026-05-08 06:04 37.30125 150.65138 29944 ft 513 kts 59°
2026-05-08 06:04 37.33681 150.72911 29947 ft 512 kts 59°
2026-05-08 06:05 37.37228 150.80683 29943 ft 512 kts 59°
2026-05-08 06:05 37.40748 150.88414 29943 ft 513 kts 59°
2026-05-08 06:06 37.44288 150.96209 29939 ft 513 kts 59°
2026-05-08 06:06 37.47827 151.04018 29941 ft 513 kts 59°
2026-05-08 06:07 37.51343 151.11796 29931 ft 513 kts 59°
2026-05-08 06:07 37.54868 151.19613 29968 ft 513 kts 59°
2026-05-08 06:08 37.58410 151.27454 29930 ft 512 kts 59°
2026-05-08 06:08 37.61847 151.35270 29918 ft 507 kts 59°
2026-05-08 06:09 37.65343 151.43079 29917 ft 514 kts 58°
2026-05-08 06:09 37.68866 151.50879 29935 ft 514 kts 59°
2026-05-08 06:10 37.72387 151.58740 29949 ft 514 kts 59°
2026-05-08 06:10 37.75898 151.66635 29952 ft 515 kts 59°
2026-05-08 06:11 37.79399 151.74536 29937 ft 515 kts 59°
2026-05-08 06:11 37.82891 151.82437 29957 ft 514 kts 59°
2026-05-08 06:12 37.86364 151.90311 29941 ft 514 kts 59°
2026-05-08 06:12 37.89833 151.98194 29937 ft 513 kts 59°
2026-05-08 06:13 37.93300 152.06089 29942 ft 512 kts 59°
2026-05-08 06:13 37.96752 152.13972 29940 ft 511 kts 59°
2026-05-08 06:14 38.00196 152.21855 29936 ft 511 kts 59°
2026-05-08 06:14 38.03637 152.29752 29977 ft 511 kts 59°
2026-05-08 06:15 38.07090 152.37702 29901 ft 516 kts 59°
2026-05-08 06:15 38.10523 152.45610 29933 ft 513 kts 59°
2026-05-08 06:16 38.13951 152.53533 29941 ft 510 kts 60°
2026-05-08 06:16 38.17359 152.61435 29935 ft 510 kts 60°
2026-05-08 06:17 38.22471 152.73319 29947 ft 511 kts 60°
2026-05-08 06:17 38.25881 152.81271 29946 ft 512 kts 60°
2026-05-08 06:18 38.29294 152.89249 29955 ft 514 kts 60°
2026-05-08 06:18 38.32688 152.97206 29949 ft 515 kts 60°
2026-05-08 06:19 38.36101 153.05227 29940 ft 514 kts 60°
2026-05-08 06:19 38.39507 153.13252 29940 ft 514 kts 61°
2026-05-08 06:20 38.42900 153.21266 29936 ft 514 kts 61°
2026-05-08 06:20 38.46268 153.29240 29946 ft 514 kts 61°
2026-05-08 06:21 38.49656 153.37283 29943 ft 514 kts 61°
2026-05-08 06:21 38.53044 153.45347 29949 ft 515 kts 61°
2026-05-08 06:22 38.56428 153.53423 29948 ft 516 kts 61°
2026-05-08 06:22 38.59809 153.61510 29941 ft 516 kts 62°
2026-05-08 06:23 38.63193 153.69626 29940 ft 516 kts 62°
2026-05-08 06:23 38.66563 153.77732 29934 ft 517 kts 62°
2026-05-08 06:24 38.69913 153.85810 29944 ft 517 kts 62°
2026-05-08 06:24 38.73287 153.93966 29949 ft 519 kts 62°
2026-05-08 06:25 38.76663 154.02148 29952 ft 520 kts 62°
2026-05-08 06:25 38.80019 154.10299 29944 ft 512 kts 62°
2026-05-08 06:26 38.83328 154.18365 29942 ft 511 kts 62°
2026-05-08 06:26 38.86627 154.26427 29948 ft 511 kts 62°
2026-05-08 06:27 38.89927 154.34510 29947 ft 512 kts 62°
2026-05-08 06:27 38.93238 154.42638 29945 ft 513 kts 63°
2026-05-08 06:28 38.96544 154.50778 29953 ft 515 kts 63°
2026-05-08 06:28 38.99849 154.58938 29949 ft 517 kts 63°
2026-05-08 06:29 39.03163 154.67141 29940 ft 518 kts 63°
2026-05-08 06:29 39.06476 154.75364 29949 ft 519 kts 63°
2026-05-08 06:30 39.09799 154.83633 29954 ft 520 kts 63°
2026-05-08 06:30 39.13114 154.91905 29953 ft 521 kts 63°
2026-05-08 06:31 39.16444 155.00236 29936 ft 522 kts 63°
2026-05-08 06:31 39.19759 155.08556 29945 ft 523 kts 63°
2026-05-08 06:32 39.23071 155.16888 29958 ft 524 kts 63°
2026-05-08 06:32 39.26393 155.25268 29976 ft 524 kts 63°
2026-05-08 06:33 39.29645 155.33493 29940 ft 509 kts 63°
2026-05-08 06:33 39.32852 155.41627 29959 ft 508 kts 63°
2026-05-08 06:34 39.36065 155.49800 29962 ft 510 kts 63°
2026-05-08 06:34 39.38735 155.56608 29963 ft 512 kts 63°
2026-05-08 06:35 39.41960 155.64850 29940 ft 515 kts 63°
2026-05-08 06:35 39.45198 155.73150 29953 ft 517 kts 63°
2026-05-08 06:36 39.48438 155.81478 29958 ft 519 kts 63°
2026-05-08 06:36 39.51685 155.89844 29955 ft 519 kts 63°
2026-05-08 06:37 39.54922 155.98207 29944 ft 519 kts 63°
2026-05-08 06:37 39.58131 156.06525 29955 ft 519 kts 63°
2026-05-08 06:38 39.61361 156.14920 29955 ft 519 kts 63°
2026-05-08 06:38 39.64575 156.23297 29955 ft 519 kts 63°
2026-05-08 06:39 39.67792 156.31701 29955 ft 518 kts 63°
2026-05-08 06:39 39.70971 156.40034 29967 ft 518 kts 63°
2026-05-08 06:40 39.74167 156.48435 29981 ft 519 kts 63°
2026-05-08 06:40 39.77361 156.56852 29962 ft 519 kts 63°
2026-05-08 06:41 39.80552 156.65283 29956 ft 519 kts 63°
2026-05-08 06:41 39.83729 156.73707 29964 ft 519 kts 63°
2026-05-08 06:42 39.86905 156.82150 29966 ft 519 kts 63°
2026-05-08 06:42 39.90076 156.90602 29969 ft 520 kts 63°
2026-05-08 06:43 39.93242 156.99067 29968 ft 520 kts 63°
2026-05-08 06:43 39.96394 157.07516 29966 ft 521 kts 63°
2026-05-08 06:44 39.99561 157.16031 29977 ft 522 kts 63°
2026-05-08 06:44 40.02725 157.24565 29968 ft 522 kts 63°
2026-05-08 06:45 40.05884 157.33107 29977 ft 522 kts 63°
2026-05-08 06:45 40.09039 157.41665 29978 ft 523 kts 63°
2026-05-08 06:46 40.12183 157.50217 29977 ft 522 kts 63°
2026-05-08 06:46 40.15324 157.58787 29968 ft 523 kts 63°
2026-05-08 06:47 40.18445 157.67328 29982 ft 524 kts 63°
2026-05-08 06:47 40.21589 157.75950 29998 ft 525 kts 64°
2026-05-08 06:48 40.24733 157.84604 29994 ft 528 kts 64°
2026-05-08 06:48 40.27890 157.93325 29987 ft 530 kts 64°
2026-05-08 06:49 40.31047 158.02068 29991 ft 531 kts 64°
2026-05-08 06:49 40.34185 158.10782 29994 ft 532 kts 64°
2026-05-08 06:50 40.37332 158.19550 29994 ft 531 kts 64°
2026-05-08 06:50 40.40473 158.28327 29992 ft 531 kts 64°
2026-05-08 06:51 40.43601 158.37094 29998 ft 530 kts 64°
2026-05-08 06:51 40.46722 158.45870 29994 ft 529 kts 64°
2026-05-08 06:52 40.49810 158.54577 29996 ft 529 kts 64°
2026-05-08 06:52 40.52914 158.63357 29998 ft 529 kts 64°
2026-05-08 06:53 40.56007 158.72134 30001 ft 529 kts 64°
2026-05-08 06:53 40.59095 158.80921 30003 ft 529 kts 64°
2026-05-08 06:54 40.62158 158.89666 30011 ft 529 kts 64°
2026-05-08 06:54 40.65233 158.98471 30009 ft 529 kts 64°
2026-05-08 06:55 40.68302 159.07290 30017 ft 530 kts 64°
2026-05-08 06:55 40.71370 159.16129 30017 ft 531 kts 64°
2026-05-08 06:56 40.74435 159.24986 30022 ft 531 kts 64°
2026-05-08 06:56 40.77497 159.33868 30016 ft 531 kts 64°
2026-05-08 06:57 40.80545 159.42734 30021 ft 530 kts 64°
2026-05-08 06:57 40.83564 159.51542 30020 ft 530 kts 64°
2026-05-08 06:58 40.86596 159.60417 30022 ft 529 kts 64°
2026-05-08 06:58 40.89616 159.69287 30027 ft 529 kts 64°
2026-05-08 06:59 40.92631 159.78169 30028 ft 529 kts 64°
2026-05-08 06:59 40.95634 159.87045 30036 ft 528 kts 64°
2026-05-08 07:00 40.98617 159.95885 30039 ft 529 kts 64°
2026-05-08 07:00 41.01995 160.04523 30034 ft 527 kts 56°
2026-05-08 07:01 41.05912 160.12731 30038 ft 528 kts 55°
2026-05-08 07:01 41.09849 160.20968 30045 ft 529 kts 54°
2026-05-08 07:02 41.13765 160.29272 30040 ft 531 kts 54°
2026-05-08 07:02 41.17638 160.37567 30037 ft 532 kts 55°
2026-05-08 07:03 41.21534 160.45945 30035 ft 533 kts 55°
2026-05-08 07:03 41.25426 160.54334 30041 ft 533 kts 54°
2026-05-08 07:04 41.29310 160.62723 30037 ft 533 kts 54°
2026-05-08 07:04 41.33199 160.71140 30038 ft 533 kts 55°
2026-05-08 07:05 41.37073 160.79551 30040 ft 533 kts 55°
2026-05-08 07:05 41.40916 160.87919 30049 ft 532 kts 55°
2026-05-08 07:06 41.44776 160.96346 30050 ft 534 kts 54°
2026-05-08 07:06 41.48653 161.04833 30053 ft 535 kts 54°
2026-05-08 07:07 41.52525 161.13336 30046 ft 536 kts 55°
2026-05-08 07:07 41.56376 161.21813 30050 ft 537 kts 55°
2026-05-08 07:08 41.60245 161.30358 30051 ft 537 kts 54°
2026-05-08 07:08 41.64111 161.38919 30052 ft 538 kts 54°
2026-05-08 07:09 41.67968 161.47485 30052 ft 537 kts 55°
2026-05-08 07:09 41.71817 161.56056 30050 ft 537 kts 55°
2026-05-08 07:10 41.75654 161.64626 30053 ft 536 kts 55°
2026-05-08 07:10 41.79453 161.73134 30049 ft 535 kts 55°
2026-05-08 07:11 41.83267 161.81700 30051 ft 534 kts 55°
2026-05-08 07:11 41.87073 161.90275 30053 ft 534 kts 55°
2026-05-08 07:12 41.90864 161.98836 30058 ft 534 kts 55°
2026-05-08 07:12 41.94625 162.07357 30058 ft 534 kts 55°
2026-05-08 07:13 41.98407 162.15949 30059 ft 534 kts 55°
2026-05-08 07:13 42.02188 162.24563 30058 ft 534 kts 55°